[[{"header":{"parameterUnit":"m.s-1","parameterCategory":2,"la1":30.2991,"la2":30.254,"lo1":-89.0895,"lo2":-89.0444,"dy":0.0017,"dx":0.0017,"nx":28,"ny":28,"refTime":"2024-04-14T03:00:00:Z","depth":"0","parameterNumber":2,"parameterNumberName":"U-component_of_CURRENTS"},"data":[0,0,0,0,0,0,0,0,0,0,0,0,0,0,0,0,0,0,0,0,0,0,0,0,0,0,0,0,0,0,0,0,0,0,0,0,0,0,0,0,0,0,0,0,0,0,0,0,0,0,0,0,0,0,0,0,0,0,0.3476,0.3477,0,0.362,0.3621,0.3623,0.365,0.3649,0.3647,0.3646,0.3676,0.3678,0.368,0,0,0,0,0,0,0,0,0,0,0,0,0,0.3351,0.3352,0.3476,0.3477,0.3479,0.3619,0.3622,0.3624,0.365,0.3649,0.3647,0.3645,0.3675,0.3678,0.368,0,0,0,0,0,0,0,0,0,0,0,0,0,0.3442,0.3353,0.3475,0.3508,0.3512,0.3619,0.3622,0.3624,0.365,0.3649,0.3647,0.3645,0.3675,0.3678,0.3681,0.3739,0,0,0.369,0.3691,0,0,0,0,0,0,0,0,0.3437,0.3447,0.3501,0.3506,0.3511,0.3613,0.3589,0.3656,0.3651,0.36,0.3646,0.3644,0.3645,0.365,0.3686,0.374,0.3741,0.369,0.3692,0.3693,0.3694,0,0,0,0,0,0,0,0.343,0.3441,0.3534,0.3503,0.3509,0.3559,0.3569,0.3603,0.3631,0.3604,0.3606,0.362,0.3647,0.3683,0.3686,0.3742,0.369,0.3693,0.3695,0.3696,0.3964,0.397,0,0,0,0,0,0,0.3405,0.3435,0.353,0.3538,0.3466,0.3562,0.3573,0.3584,0.3633,0.3639,0.3622,0.3621,0.3679,0.3683,0.3687,0.3819,0.3693,0.3696,0.3698,0.3959,0.3966,0.3971,0,0,0,0,0,0,0.3402,0.3412,0.3524,0.3489,0.3506,0.3565,0.3578,0.3588,0.3634,0.3647,0.3651,0.3658,0.3677,0.3683,0.3746,0.3817,0.3697,0.37,0.3953,0.3961,0.3969,0.4042,0,0,0,0,0,0,0.3398,0.341,0.3414,0.3487,0.3507,0.361,0.358,0.3592,0.3645,0.3645,0.368,0.368,0.3676,0.3742,0.3749,0.3819,0.3703,0.3946,0.3957,0.3966,0.4033,0.4052,0.4068,0,0,0,0,0,0.3393,0.3409,0.3413,0.3424,0.3508,0.3613,0.363,0.3665,0.3648,0.3695,0.3714,0.368,0.3811,0.3747,0.3755,0.3827,0.3941,0.3954,0.3965,0.4025,0.4048,0.4067,0,0,0,0,0,0,0.3351,0.3415,0.3421,0.3452,0.3534,0.3617,0.3655,0.3681,0.3738,0.3729,0.3728,0.3733,0.3831,0.3829,0.3759,0.3946,0.388,0.3894,0.3924,0.3945,0.3962,0.3948,0.3705,0,0,0,0,0,0.3344,0.3377,0.3453,0.3485,0.3521,0.3591,0.3635,0.3671,0.3727,0.3751,0.3782,0.3825,0.3892,0.391,0.3973,0.4048,0.4052,0.4114,0.4131,0.4145,0.4147,0.4214,0.4235,0.4011,0.4011,0.401,0,0,0.3336,0.3376,0.3394,0.348,0.3537,0.3627,0.3614,0.3698,0.3775,0.3744,0.3849,0.389,0.3934,0.4037,0.4081,0.4032,0.4222,0.416,0.4171,0.4166,0.4229,0.425,0.4268,0.4019,0.4017,0.4016,0,0,0.3367,0.3377,0.343,0.3507,0.3604,0.3657,0.3685,0.379,0.3832,0.3935,0.3953,0.4034,0.4116,0.4177,0.421,0.4364,0.4325,0.4393,0.4443,0.4509,0.4526,0.4541,0.4595,0.4614,0.4383,0.4383,0.4383,0,0.3352,0.3426,0.3468,0.3556,0.3617,0.3674,0.3765,0.3837,0.3953,0.3994,0.3976,0.4152,0.4191,0.4316,0.4379,0.4401,0.4414,0.4343,0.4524,0.4539,0.4553,0.4605,0.4625,0.4388,0.4387,0.4387,0.4386,0,0.3441,0.3507,0.3551,0.3671,0.3749,0.3837,0.3935,0.4015,0.4055,0.4118,0.425,0.4314,0.4402,0.4456,0.4455,0.4599,0.4572,0.4543,0.4448,0.4578,0.4627,0.4647,0.4395,0.4393,0.4392,0.439,0,0,0.3395,0.3572,0.3591,0.3666,0.3812,0.3889,0.401,0.4135,0.4202,0.4306,0.4399,0.454,0.4551,0.4594,0.4625,0.4685,0.4816,0.4649,0.465,0.4664,0.4948,0.481,0.4817,0.4794,0.4798,0.4801,0.4947,0,0.3453,0.3614,0.3692,0.3855,0.3947,0.4032,0.4138,0.4253,0.4329,0.4437,0.4509,0.4618,0.4609,0.4653,0.4718,0.4802,0.4867,0.4778,0.4855,0.4858,0.4686,0.4836,0.4508,0.4599,0.4966,0.4969,0.4971,0,0.3523,0.3621,0.3772,0.3942,0.3986,0.4082,0.4229,0.4337,0.448,0.4535,0.4629,0.4681,0.4822,0.4777,0.495,0.4883,0.4928,0.4971,0.4976,0.4827,0.4755,0.4531,0.4619,0.448,0.5,0.4998,0.4995,0,0.3493,0.3681,0.379,0.3856,0.4049,0.4115,0.4211,0.4357,0.4445,0.4597,0.4663,0.4798,0.4878,0.4961,0.5046,0.5006,0.5204,0.5159,0.5082,0.5072,0.4799,0.4758,0.4718,0.5277,0.5277,0.5277,0.5276,0,0.3539,0.3643,0.3778,0.3855,0.3973,0.4101,0.423,0.4339,0.4481,0.4586,0.4701,0.4792,0.4923,0.5034,0.5091,0.5145,0.5243,0.5121,0.5111,0.4821,0.4782,0.4649,0.4604,0.5282,0.5281,0.528,0.5279,0,0.3539,0.3634,0.3765,0.3925,0.3976,0.406,0.4242,0.4328,0.4463,0.4601,0.4653,0.4825,0.4963,0.5076,0.523,0.5193,0.5101,0.5258,0.4903,0.4846,0.459,0.4562,0.4436,0.4318,0.5195,0.5193,0.5191,0,0.356,0.3625,0.3779,0.3841,0.3923,0.4052,0.414,0.4303,0.439,0.4606,0.4664,0.4838,0.4932,0.5101,0.5079,0.5146,0.5029,0.4856,0.4724,0.4553,0.4518,0.4414,0.4318,0.4416,0.4408,0.4401,0.4396,0,0.3584,0.3623,0.3716,0.3832,0.3928,0.404,0.417,0.4227,0.4404,0.4491,0.4624,0.4715,0.4852,0.4746,0.4798,0.4789,0.456,0.4718,0.463,0.3984,0.378,0.3664,0.4361,0.4336,0.4342,0.4346,0.435,0.4352,0.3566,0.3613,0.3707,0.3805,0.3914,0.3996,0.4016,0.4126,0.4207,0.4258,0.4463,0.4457,0.4406,0.4422,0.4401,0.408,0.421,0.388,0.3893,0.3833,0.3595,0.4162,0.4061,0.4065,0.4069,0.4072,0.4075,0,0.3518,0.3581,0.3678,0.3772,0.3821,0.3915,0.3999,0.3949,0.3933,0.4016,0.4067,0.3921,0.3759,0.3699,0.3434,0.3265,0.3149,0.315,0.2915,0.2892,0.3452,0.3288,0.2902,0.2902,0.2902,0.2902,0.2902,0.2902,0.3506,0.3551,0.3588,0.363,0.3685,0.3658,0.3652,0.3589,0.3589,0.3418,0.3274,0.3298,0.3254,0.3024,0.2739,0.2653,0.2499,0.231,0.2469,0.2824,0.2892,0.2958,0.2793,0.231,0.2309,0.1706,0.1702,0.1698]},{"header":{"parameterUnit":"m.s-1","parameterCategory":2,"la1":30.2991,"la2":30.254,"lo1":-89.0895,"lo2":-89.0444,"dy":0.0017,"dx":0.0017,"nx":28,"ny":28,"refTime":"2024-04-14T03:00:00:Z","depth":"0","parameterNumber":3,"parameterNumberName":"V-component_of_CURRENTS"},"data":[0,0,0,0,0,0,0,0,0,0,0,0,0,0,0,0,0,0,0,0,0,0,0,0,0,0,0,0,0,0,0,0,0,0,0,0,0,0,0,0,0,0,0,0,0,0,0,0,0,0,0,0,0,0,0,0,0,0,-0.0004,-0.0005,0,-0.0127,-0.0129,-0.013,-0.0185,-0.0185,-0.0184,-0.0184,-0.0252,-0.0254,-0.0257,0,0,0,0,0,0,0,0,0,0,0,0,0,0.0096,0.0095,-0.0004,-0.0005,-0.0007,-0.0127,-0.0129,-0.0131,-0.0185,-0.0185,-0.0184,-0.0183,-0.0251,-0.0254,-0.0257,0,0,0,0,0,0,0,0,0,0,0,0,0,0.0018,0.0094,-0.0004,-0.0046,-0.0051,-0.0127,-0.0129,-0.0131,-0.0185,-0.0184,-0.0184,-0.0183,-0.0251,-0.0254,-0.0257,-0.0291,0,0,-0.0267,-0.0269,0,0,0,0,0,0,0,0,0.0023,0.0014,-0.0039,-0.0043,-0.0049,-0.0138,-0.0119,-0.0181,-0.0185,-0.0137,-0.0184,-0.0183,-0.0207,-0.0214,-0.0244,-0.0294,-0.0297,-0.0268,-0.027,-0.0271,-0.0272,0,0,0,0,0,0,0,0.0028,0.0019,-0.0056,-0.004,-0.0046,-0.0089,-0.0099,-0.0132,-0.0176,-0.0141,-0.0145,-0.0154,-0.021,-0.024,-0.0245,-0.0298,-0.0268,-0.027,-0.0273,-0.0274,-0.0326,-0.0325,0,0,0,0,0,0,0.0053,0.0024,-0.0052,-0.0059,-0.0007,-0.009,-0.0102,-0.0112,-0.0177,-0.0186,-0.0155,-0.0156,-0.0235,-0.0242,-0.0248,-0.0228,-0.0271,-0.0274,-0.0276,-0.0326,-0.0326,-0.0325,0,0,0,0,0,0,0.0056,0.0047,-0.0047,-0.0018,-0.0032,-0.0092,-0.0104,-0.0115,-0.0139,-0.0187,-0.0195,-0.0166,-0.0235,-0.0243,-0.0277,-0.0233,-0.0276,-0.0279,-0.0327,-0.0326,-0.0325,-0.0229,0,0,0,0,0,0,0.0059,0.0049,0.0047,-0.0016,-0.0033,-0.0083,-0.0105,-0.0118,-0.0144,-0.0148,-0.0199,-0.0206,-0.0235,-0.0272,-0.0281,-0.0239,-0.0281,-0.0328,-0.0327,-0.0325,-0.0233,-0.0225,-0.0218,0,0,0,0,0,0.0063,0.006,0.0048,0.0039,-0.0032,-0.0083,-0.0096,-0.0138,-0.0145,-0.0157,-0.0194,-0.0204,-0.0269,-0.0276,-0.0285,-0.0243,-0.0328,-0.0327,-0.0326,-0.0236,-0.0226,-0.0218,0,0,0,0,0,0,0.01,0.0052,0.0038,0.002,-0.0022,-0.0091,-0.0104,-0.0133,-0.0175,-0.017,-0.0215,-0.0225,-0.0233,-0.0262,-0.0267,-0.0255,-0.0292,-0.0293,-0.0221,-0.0212,-0.0205,-0.0157,-0.0284,0,0,0,0,0,0.011,0.0097,0.0043,0.003,0.0014,-0.0043,-0.0068,-0.0095,-0.0139,-0.0157,-0.0193,-0.0221,-0.0238,-0.0245,-0.0275,-0.028,-0.028,-0.0255,-0.0247,-0.024,-0.0209,-0.0201,-0.0188,-0.032,-0.032,-0.032,0,0,0.012,0.0093,0.0086,0.0038,0.0003,-0.0005,-0.0057,-0.0086,-0.0082,-0.0156,-0.0163,-0.0204,-0.0238,-0.024,-0.0242,-0.0255,-0.0201,-0.0239,-0.0232,-0.0204,-0.0198,-0.0184,-0.0173,-0.0319,-0.0319,-0.032,0,0,0.0144,0.0115,0.0117,0.0091,0.0051,0.002,0.0019,-0.0041,-0.0056,-0.0084,-0.0117,-0.0132,-0.0181,-0.0182,-0.0189,-0.0159,-0.0169,-0.0168,-0.0081,-0.0073,-0.0062,-0.0051,-0.002,-0.0008,-0.0155,-0.0155,-0.0154,0,0.0163,0.016,0.0108,0.0109,0.0106,0.0044,0.0058,0.0029,-0.0032,-0.0026,-0.0068,-0.01,-0.0141,-0.0103,-0.0096,-0.0135,-0.0132,-0.0111,-0.006,-0.005,-0.0041,-0.0012,0.0,-0.015,-0.015,-0.0151,-0.0151,0,0.0189,0.0193,0.0193,0.0186,0.0171,0.0168,0.0136,0.0125,0.0099,0.0077,0.0084,0.0022,0.0015,-0.0001,-0.0044,0.0013,-0.0005,-0.0058,-0.0075,-0.0021,0.0005,0.0016,-0.0143,-0.0145,-0.0146,-0.0147,0,0,0.0224,0.0216,0.0221,0.0244,0.0218,0.0214,0.0232,0.0235,0.0271,0.0215,0.0264,0.0217,0.0188,0.0178,0.0133,0.0136,0.0189,0.0074,0.0072,0.0121,0.0229,0.0195,0.0203,0.0139,0.0141,0.0143,0.0228,0,0.0268,0.0305,0.0285,0.0336,0.0358,0.0328,0.0354,0.0354,0.0342,0.0368,0.0335,0.0349,0.0258,0.0264,0.0254,0.0201,0.0221,0.0173,0.0156,0.0157,0.0133,0.0216,0.0217,0.0291,0.0238,0.024,0.0242,0,0.0308,0.0333,0.039,0.0434,0.0442,0.0467,0.052,0.0532,0.0553,0.0546,0.0557,0.052,0.0538,0.0437,0.0415,0.0386,0.0329,0.0281,0.0282,0.0231,0.0144,0.0223,0.0312,0.0166,0.0258,0.0257,0.0256,0,0.0374,0.0413,0.0472,0.0482,0.0514,0.0551,0.0573,0.0597,0.0638,0.0676,0.0719,0.0702,0.0724,0.0643,0.0538,0.0481,0.0513,0.0416,0.0348,0.0345,0.0337,0.0329,0.0299,0.0422,0.0422,0.0421,0.0421,0,0.0434,0.0486,0.0514,0.0548,0.0639,0.063,0.0725,0.074,0.0792,0.0885,0.0827,0.0913,0.0773,0.0761,0.0628,0.0547,0.0589,0.0404,0.0375,0.0369,0.0364,0.0224,0.0139,0.0425,0.0424,0.0423,0.0423,0,0.0505,0.0515,0.0593,0.0646,0.0673,0.0741,0.0823,0.089,0.0926,0.1054,0.1081,0.1099,0.1094,0.0957,0.0857,0.0692,0.0517,0.0551,0.0566,0.0535,0.0283,0.0205,0.0164,0.0117,0.0486,0.0486,0.0486,0,0.0548,0.0591,0.0672,0.073,0.0764,0.0853,0.0918,0.0959,0.1041,0.1187,0.1271,0.1314,0.139,0.1234,0.096,0.0763,0.0589,0.0585,0.0457,0.0311,0.0202,0.0127,0.0084,0.0496,0.0496,0.0496,0.0496,0,0.0639,0.0663,0.0727,0.0837,0.0921,0.1013,0.1116,0.12,0.1284,0.1424,0.1615,0.17,0.1565,0.1379,0.1066,0.0889,0.0477,0.0574,0.0425,0.0228,0.0147,0.0073,0.0408,0.0496,0.0496,0.0496,0.0496,0.0496,0.0715,0.0778,0.0854,0.096,0.1056,0.1176,0.127,0.1406,0.1587,0.1815,0.1873,0.2051,0.1709,0.1301,0.1045,0.0507,0.0506,0.0311,0.0241,0.0188,0.0101,0.0444,0.0477,0.0477,0.0477,0.0477,0.0477,0,0.0811,0.0872,0.0971,0.1099,0.1211,0.1236,0.1403,0.1516,0.1763,0.201,0.2205,0.214,0.1752,0.1282,0.0553,0.0213,0.0092,0.0033,-0.0072,-0.0092,0.0226,0.0179,0.0148,0.0148,0.0148,0.0148,0.0148,0.0148,0.0869,0.0976,0.1015,0.1207,0.1296,0.1449,0.1547,0.174,0.1935,0.222,0.2343,0.2403,0.1981,0.0818,0.0038,-0.012,-0.0324,-0.0369,-0.0461,-0.0269,-0.0249,-0.023,-0.0295,-0.0425,-0.0426,-0.0748,-0.0752,-0.0754]}],[{"header":{"parameterUnit":"m.s-1","parameterCategory":2,"la1":30.2991,"la2":30.254,"lo1":-89.0895,"lo2":-89.0444,"dy":0.0017,"dx":0.0017,"nx":28,"ny":28,"refTime":"2024-04-14T03:00:00:Z","depth":"2","parameterNumber":2,"parameterNumberName":"U-component_of_CURRENTS"},"data":[0,0,0,0,0,0,0,0,0,0,0,0,0,0,0,0,0,0,0,0,0,0,0,0,0,0,0,0,0,0,0,0,0,0,0,0,0,0,0,0,0,0,0,0,0,0,0,0,0,0,0,0,0,0,0,0,0,0,0.266,0.266,0,0.2602,0.2601,0.2599,0.2615,0.2617,0.2619,0.2621,0.2714,0.2715,0.2715,0,0,0,0,0,0,0,0,0,0,0,0,0,0.2653,0.2654,0.266,0.266,0.266,0.2602,0.2601,0.2599,0.2615,0.2617,0.2619,0.2622,0.2714,0.2715,0.2716,0,0,0,0,0,0,0,0,0,0,0,0,0,0.2624,0.2654,0.266,0.2667,0.2668,0.2603,0.2601,0.2599,0.2614,0.2617,0.262,0.2623,0.2714,0.2715,0.2716,0.2663,0,0,0.2719,0.2719,0,0,0,0,0,0,0,0,0.2626,0.2623,0.2666,0.2667,0.2667,0.2626,0.2633,0.2631,0.2613,0.2625,0.2621,0.2624,0.2702,0.2704,0.2672,0.2667,0.2671,0.2719,0.2719,0.272,0.272,0,0,0,0,0,0,0,0.2628,0.2625,0.2628,0.2666,0.2667,0.2629,0.2629,0.2631,0.2644,0.2625,0.2628,0.2634,0.2703,0.2671,0.2675,0.2673,0.2719,0.272,0.272,0.2721,0.2845,0.2847,0,0,0,0,0,0,0.2656,0.2628,0.263,0.2627,0.2663,0.2628,0.2627,0.2629,0.2641,0.2647,0.2632,0.2635,0.2668,0.2674,0.2679,0.2833,0.272,0.2721,0.2721,0.2842,0.2845,0.2848,0,0,0,0,0,0,0.2656,0.2656,0.2633,0.2633,0.2629,0.2627,0.2628,0.2627,0.2642,0.2646,0.2654,0.2656,0.2671,0.2678,0.2746,0.283,0.2721,0.2722,0.2839,0.2843,0.2847,0.3005,0,0,0,0,0,0,0.2656,0.2656,0.266,0.2635,0.263,0.265,0.2627,0.2624,0.2643,0.2648,0.2668,0.2677,0.2673,0.2744,0.2747,0.2829,0.2723,0.2835,0.2841,0.2846,0.2997,0.3014,0.3029,0,0,0,0,0,0.2655,0.2654,0.266,0.2661,0.2638,0.2653,0.2647,0.2648,0.2642,0.2666,0.2688,0.2679,0.2779,0.2747,0.2749,0.2834,0.2833,0.2839,0.2845,0.2989,0.3011,0.3029,0,0,0,0,0,0,0.265,0.2655,0.2662,0.2662,0.2686,0.2661,0.2669,0.2667,0.2688,0.2703,0.2701,0.2712,0.281,0.2786,0.2751,0.2883,0.2808,0.2815,0.2917,0.2937,0.2953,0.2954,0.2724,0,0,0,0,0,0.2651,0.2661,0.267,0.268,0.2693,0.2684,0.2685,0.2697,0.2713,0.2724,0.2745,0.2773,0.2821,0.2854,0.288,0.2936,0.2928,0.2994,0.3011,0.3025,0.3027,0.3106,0.3131,0.2868,0.2868,0.2868,0,0,0.2655,0.2659,0.2666,0.2682,0.2688,0.2716,0.2692,0.2721,0.2774,0.2732,0.2813,0.2833,0.2849,0.2934,0.2975,0.2936,0.3094,0.3033,0.3045,0.3039,0.3115,0.3141,0.3164,0.2872,0.2872,0.2871,0,0,0.267,0.2675,0.2691,0.2721,0.2756,0.2753,0.2778,0.2793,0.2838,0.291,0.2908,0.2976,0.3029,0.3065,0.3087,0.32,0.3181,0.3218,0.3304,0.3383,0.3405,0.3425,0.3444,0.3464,0.3225,0.3225,0.3225,0,0.2678,0.2686,0.2703,0.2739,0.2771,0.2783,0.2826,0.2866,0.2912,0.2972,0.2976,0.307,0.3097,0.3192,0.325,0.3242,0.326,0.3233,0.3407,0.3426,0.3443,0.3458,0.3478,0.3233,0.3232,0.3232,0.3231,0,0.2717,0.2726,0.2745,0.2793,0.2844,0.2875,0.2952,0.3042,0.3094,0.3115,0.3243,0.3261,0.331,0.3352,0.3347,0.3481,0.3444,0.3424,0.336,0.348,0.3486,0.3505,0.3245,0.3242,0.324,0.3238,0,0,0.2717,0.2755,0.2767,0.2798,0.2872,0.292,0.3067,0.3174,0.3244,0.3334,0.3427,0.3531,0.3506,0.3527,0.352,0.3601,0.3753,0.358,0.358,0.3602,0.3902,0.3747,0.3751,0.3779,0.3783,0.3786,0.3855,0,0.2735,0.2779,0.2819,0.2897,0.2921,0.3039,0.3139,0.3267,0.3358,0.3453,0.3535,0.3605,0.3577,0.3616,0.3685,0.3728,0.3809,0.3733,0.3776,0.3776,0.363,0.377,0.3444,0.3467,0.3872,0.3875,0.3877,0,0.2757,0.2777,0.2842,0.2923,0.2954,0.302,0.3215,0.3315,0.3476,0.3569,0.3661,0.3681,0.3802,0.3771,0.3895,0.3852,0.3898,0.3933,0.3936,0.3746,0.3657,0.3413,0.3484,0.3906,0.3904,0.3902,0.39,0,0.2738,0.2799,0.2848,0.2885,0.2988,0.3096,0.3173,0.3338,0.345,0.3645,0.3719,0.381,0.3884,0.3962,0.4023,0.399,0.4155,0.4101,0.3999,0.3986,0.3688,0.3641,0.4232,0.4232,0.4232,0.4232,0.4231,0,0.2725,0.2766,0.2836,0.2873,0.2951,0.3059,0.3188,0.3322,0.3478,0.3584,0.3723,0.3817,0.3956,0.4045,0.4074,0.4077,0.4192,0.4036,0.4015,0.3729,0.3688,0.4042,0.4019,0.4234,0.4233,0.4233,0.4233,0,0.2703,0.2739,0.2808,0.2912,0.2938,0.3026,0.3195,0.329,0.3444,0.3605,0.3694,0.3882,0.4,0.4072,0.4218,0.4131,0.4171,0.4161,0.3788,0.3721,0.3925,0.391,0.4017,0.4012,0.4009,0.4006,0.4003,0,0.2688,0.2702,0.2828,0.2878,0.2926,0.3047,0.3121,0.3289,0.3387,0.363,0.3686,0.3878,0.3947,0.4035,0.4004,0.3996,0.4136,0.3687,0.3557,0.3945,0.3915,0.3905,0.3894,0.3224,0.3215,0.3208,0.3202,0,0.2667,0.2729,0.2808,0.2863,0.2951,0.3036,0.3134,0.3181,0.3392,0.3497,0.3618,0.3696,0.379,0.3631,0.3642,0.3602,0.3641,0.3534,0.4091,0.3319,0.3201,0.3169,0.3185,0.3138,0.3144,0.3149,0.3153,0.3155,0.268,0.2716,0.2805,0.2853,0.2961,0.2975,0.2956,0.3054,0.3129,0.317,0.3365,0.3338,0.3374,0.318,0.3097,0.3042,0.3281,0.3113,0.3134,0.3164,0.305,0.2931,0.2794,0.2798,0.2802,0.2805,0.2808,0,0.265,0.2686,0.2756,0.2798,0.2825,0.2914,0.2934,0.2851,0.2826,0.2901,0.2917,0.2655,0.2537,0.2613,0.2409,0.238,0.2365,0.2292,0.2243,0.2308,0.2365,0.221,0.1732,0.1729,0.1726,0.1723,0,0,0.2648,0.2669,0.267,0.2637,0.2666,0.2611,0.2571,0.2464,0.2438,0.2305,0.2256,0.2357,0.2493,0.206,0.2,0.1836,0.206,0.1763,0.2625,0.2632,0.2685,0.2837,0.2671,0,0,0,0,0]},{"header":{"parameterUnit":"m.s-1","parameterCategory":2,"la1":30.2991,"la2":30.254,"lo1":-89.0895,"lo2":-89.0444,"dy":0.0017,"dx":0.0017,"nx":28,"ny":28,"refTime":"2024-04-14T03:00:00:Z","depth":"2","parameterNumber":3,"parameterNumberName":"V-component_of_CURRENTS"},"data":[0,0,0,0,0,0,0,0,0,0,0,0,0,0,0,0,0,0,0,0,0,0,0,0,0,0,0,0,0,0,0,0,0,0,0,0,0,0,0,0,0,0,0,0,0,0,0,0,0,0,0,0,0,0,0,0,0,0,-0.0014,-0.0014,0,-0.0046,-0.0046,-0.0046,-0.0077,-0.0078,-0.0079,-0.008,-0.0147,-0.0148,-0.0149,0,0,0,0,0,0,0,0,0,0,0,0,0,0.0043,0.0042,-0.0014,-0.0014,-0.0015,-0.0046,-0.0046,-0.0046,-0.0077,-0.0078,-0.0079,-0.008,-0.0146,-0.0148,-0.0149,0,0,0,0,0,0,0,0,0,0,0,0,0,0.0019,0.0042,-0.0014,-0.0037,-0.004,-0.0046,-0.0046,-0.0046,-0.0077,-0.0078,-0.0079,-0.0081,-0.0146,-0.0147,-0.0149,-0.0135,0,0,-0.0154,-0.0155,0,0,0,0,0,0,0,0,0.0021,0.0018,-0.0033,-0.0036,-0.0039,-0.0062,-0.0051,-0.0079,-0.0077,-0.0059,-0.008,-0.0081,-0.0123,-0.0127,-0.0124,-0.0139,-0.0141,-0.0154,-0.0155,-0.0156,-0.0156,0,0,0,0,0,0,0,0.0022,0.0019,-0.0022,-0.0034,-0.0038,-0.0039,-0.0044,-0.0056,-0.0082,-0.0061,-0.0064,-0.0073,-0.0125,-0.0122,-0.0126,-0.0142,-0.0154,-0.0155,-0.0156,-0.0157,-0.0149,-0.0148,0,0,0,0,0,0,0.0018,0.002,-0.0021,-0.0024,-0.0016,-0.004,-0.0044,-0.005,-0.0081,-0.0088,-0.0072,-0.0075,-0.0119,-0.0124,-0.0129,-0.0113,-0.0156,-0.0157,-0.0158,-0.015,-0.0149,-0.0147,0,0,0,0,0,0,0.002,0.0015,-0.002,-0.0006,-0.0011,-0.004,-0.0046,-0.0051,-0.0056,-0.009,-0.0097,-0.0075,-0.012,-0.0127,-0.0147,-0.0116,-0.0158,-0.0159,-0.0151,-0.015,-0.0148,-0.0082,0,0,0,0,0,0,0.0022,0.0016,0.0018,-0.0006,-0.0012,-0.0022,-0.0046,-0.005,-0.0062,-0.0065,-0.0095,-0.0102,-0.0122,-0.0144,-0.0148,-0.0119,-0.0161,-0.0153,-0.0151,-0.0148,-0.0086,-0.0078,-0.0072,0,0,0,0,0,0.0024,0.0028,0.0018,0.0013,-0.0011,-0.0022,-0.0024,-0.0046,-0.0061,-0.0056,-0.0083,-0.0101,-0.0132,-0.0145,-0.015,-0.012,-0.0154,-0.0151,-0.0149,-0.0089,-0.008,-0.0072,0,0,0,0,0,0,0.0052,0.0024,0.0013,0.0007,-0.0006,-0.0029,-0.0027,-0.0044,-0.0058,-0.0065,-0.0097,-0.0105,-0.011,-0.0124,-0.0137,-0.011,-0.0141,-0.0139,-0.0094,-0.0086,-0.0079,-0.0057,-0.0162,0,0,0,0,0,0.0059,0.0055,0.0029,0.0025,0.0022,-0.0001,-0.0007,-0.0024,-0.0045,-0.0052,-0.0071,-0.0088,-0.0099,-0.0103,-0.0118,-0.0106,-0.0124,-0.0086,-0.0079,-0.0073,-0.0057,-0.0067,-0.006,-0.0139,-0.0139,-0.0139,0,0,0.0067,0.0052,0.0048,0.0031,0.0022,0.0037,-0.0006,-0.0014,0.0003,-0.0057,-0.0038,-0.0072,-0.0094,-0.0083,-0.0084,-0.0093,-0.006,-0.007,-0.0064,-0.0052,-0.0064,-0.0056,-0.005,-0.0137,-0.0137,-0.0137,0,0,0.009,0.0071,0.0082,0.0079,0.0063,0.0057,0.0055,0.0036,0.0032,0.0034,-0.0,-0.0015,-0.0027,-0.0031,-0.0036,0.0003,-0.0032,-0.0002,0.006,0.005,0.0057,0.0062,0.0046,0.0049,0.0012,0.0012,0.0012,0,0.0103,0.0117,0.0084,0.0103,0.0115,0.0072,0.0103,0.0097,0.0075,0.0086,0.0049,0.0041,0.0007,0.0036,0.0039,0.0021,0.0,0.0029,0.0059,0.0064,0.0068,0.0051,0.0054,0.0015,0.0015,0.0015,0.0014,0,0.0141,0.0158,0.0167,0.0185,0.0192,0.0206,0.0197,0.0202,0.0188,0.0185,0.0194,0.0144,0.0147,0.0131,0.009,0.0117,0.0086,0.0059,0.0038,0.008,0.0059,0.0061,0.002,0.0019,0.0018,0.0017,0,0,0.0163,0.0191,0.0197,0.0234,0.024,0.0256,0.0286,0.0314,0.0354,0.0316,0.0363,0.032,0.0287,0.0278,0.0229,0.0209,0.0203,0.0147,0.0144,0.0131,0.0172,0.0135,0.0133,0.0173,0.0173,0.0174,0.0143,0,0.0212,0.0273,0.0274,0.035,0.0389,0.0378,0.0424,0.0438,0.0441,0.0471,0.042,0.0433,0.0348,0.0341,0.0311,0.023,0.0211,0.0213,0.0133,0.0131,0.0093,0.0135,0.0156,0.0129,0.0144,0.0144,0.0144,0,0.0259,0.0299,0.0376,0.0457,0.0475,0.0517,0.0591,0.0624,0.0644,0.064,0.0633,0.0588,0.0557,0.0469,0.0377,0.0377,0.0285,0.0213,0.021,0.0158,0.0099,0.0089,0.0131,0.0147,0.0147,0.0147,0.0146,0,0.0305,0.0381,0.0452,0.0474,0.0546,0.0592,0.0638,0.0681,0.0731,0.0746,0.0781,0.0726,0.071,0.0592,0.0436,0.0405,0.0324,0.027,0.0157,0.0153,0.0148,0.0143,0.0212,0.0212,0.0212,0.0212,0.0213,0,0.0363,0.0425,0.0483,0.0524,0.0639,0.066,0.0771,0.0806,0.0858,0.0949,0.0876,0.0924,0.0736,0.0664,0.0497,0.0343,0.0379,0.0182,0.015,0.0171,0.0168,0.0164,0.0159,0.0211,0.0212,0.0212,0.0212,0,0.0405,0.0434,0.0529,0.0619,0.0662,0.0744,0.0862,0.0942,0.0978,0.1091,0.11,0.1071,0.0976,0.0789,0.0601,0.0443,0.0282,0.0216,0.0246,0.0218,0.0098,0.0097,0.0093,0.0091,0.009,0.0089,0.0088,0,0.0436,0.0481,0.0599,0.0668,0.0718,0.083,0.0923,0.0993,0.1087,0.1197,0.1271,0.1212,0.1194,0.0909,0.0612,0.0338,0.0294,0.0171,0.0112,0.0121,0.009,0.0091,0.0091,0.013,0.013,0.013,0.0129,0,0.0503,0.0532,0.061,0.0744,0.0856,0.0984,0.1123,0.121,0.1315,0.1416,0.1531,0.1518,0.1259,0.0982,0.0595,0.0403,0.021,0.0154,0.0182,0.0151,0.0152,0.0123,0.0123,0.0126,0.0127,0.0127,0.0127,0.0127,0.0558,0.0622,0.0713,0.0845,0.097,0.1133,0.1247,0.1393,0.1558,0.169,0.168,0.1649,0.1347,0.0831,0.0527,0.019,0.0196,0.0062,0.0065,0.0068,0.0072,0.007,0.003,0.003,0.003,0.0029,0.0029,0,0.0638,0.0703,0.0815,0.0977,0.1112,0.1169,0.1381,0.1481,0.1683,0.176,0.1809,0.1506,0.1214,0.0869,0.0377,0.0086,0.0064,-0.0012,0.0031,0.0036,0.004,0.0044,-0.0007,-0.0008,-0.0009,-0.001,0,0,0.0685,0.0793,0.084,0.1064,0.1177,0.1374,0.1492,0.1638,0.1726,0.178,0.174,0.164,0.1275,0.0906,0.0531,0.0265,0.0208,0.0201,0.026,0.036,0.0368,0.0112,0.0127,0,0,0,0,0]}],[{"header":{"parameterUnit":"m.s-1","parameterCategory":2,"la1":30.2991,"la2":30.254,"lo1":-89.0895,"lo2":-89.0444,"dy":0.0017,"dx":0.0017,"nx":28,"ny":28,"refTime":"2024-04-14T03:00:00:Z","depth":"4","parameterNumber":2,"parameterNumberName":"U-component_of_CURRENTS"},"data":[0,0,0,0,0,0,0,0,0,0,0,0,0,0,0,0,0,0,0,0,0,0,0,0,0,0,0,0,0,0,0,0,0,0,0,0,0,0,0,0,0,0,0,0,0,0,0,0,0,0,0,0,0,0,0,0,0,0,0.1493,0.1493,0,0.1425,0.1423,0.1422,0.146,0.1462,0.1465,0.1467,0.1544,0.1544,0.1543,0,0,0,0,0,0,0,0,0,0,0,0,0,0.1532,0.1531,0.1493,0.1493,0.1492,0.1425,0.1423,0.1422,0.1459,0.1463,0.1466,0.1469,0.1544,0.1544,0.1543,0,0,0,0,0,0,0,0,0,0,0,0,0,0.1488,0.1531,0.1493,0.1508,0.151,0.1425,0.1423,0.1421,0.1459,0.1463,0.1466,0.147,0.1544,0.1544,0.1543,0.1464,0,0,0.1542,0.1542,0,0,0,0,0,0,0,0,0.149,0.1485,0.1506,0.1507,0.1509,0.1461,0.1465,0.1445,0.1458,0.1471,0.1467,0.1472,0.1531,0.1532,0.1499,0.1468,0.1471,0.1542,0.1541,0.1541,0.1541,0,0,0,0,0,0,0,0.1494,0.1488,0.1459,0.1506,0.1507,0.1477,0.1475,0.146,0.1478,0.147,0.1474,0.1477,0.1533,0.1499,0.1501,0.1472,0.1542,0.1541,0.1541,0.1541,0.1637,0.164,0,0,0,0,0,0,0.1518,0.1491,0.1461,0.1457,0.1517,0.1474,0.1472,0.1467,0.1475,0.1481,0.1473,0.1479,0.1498,0.1502,0.1505,0.1602,0.1541,0.1541,0.154,0.1634,0.1638,0.1641,0,0,0,0,0,0,0.1519,0.1516,0.1464,0.1479,0.1472,0.1471,0.1464,0.1463,0.1483,0.1477,0.1485,0.1501,0.1501,0.1505,0.157,0.1599,0.1541,0.154,0.1631,0.1635,0.1639,0.1675,0,0,0,0,0,0,0.152,0.1516,0.153,0.148,0.1472,0.1453,0.1461,0.146,0.1479,0.1486,0.1502,0.151,0.1504,0.1571,0.157,0.1597,0.154,0.1627,0.1633,0.1638,0.167,0.168,0.1688,0,0,0,0,0,0.1521,0.1519,0.1531,0.1529,0.1488,0.1454,0.1447,0.1453,0.1477,0.1484,0.1528,0.1512,0.1605,0.1573,0.157,0.1598,0.1625,0.1631,0.1637,0.1666,0.1678,0.1688,0,0,0,0,0,0,0.1549,0.1521,0.1534,0.1528,0.1517,0.1465,0.1464,0.1473,0.1499,0.1524,0.1533,0.1543,0.16,0.1608,0.1572,0.165,0.1617,0.1623,0.164,0.165,0.1659,0.169,0.1539,0,0,0,0,0,0.156,0.1553,0.1529,0.1531,0.1522,0.15,0.1494,0.1499,0.1509,0.1523,0.1545,0.1582,0.1607,0.1644,0.1648,0.1688,0.1704,0.1715,0.1724,0.1731,0.176,0.1832,0.185,0.1662,0.1662,0.1662,0,0,0.1574,0.1559,0.1558,0.1538,0.1519,0.1498,0.1505,0.15,0.1502,0.1527,0.1559,0.1596,0.1622,0.1667,0.1697,0.1693,0.1787,0.1739,0.1745,0.1771,0.1841,0.1859,0.1875,0.1666,0.1665,0.1665,0,0,0.1573,0.158,0.1566,0.1556,0.1545,0.1521,0.1535,0.1515,0.1531,0.1554,0.1591,0.168,0.1682,0.1742,0.1762,0.1832,0.1814,0.183,0.1916,0.1984,0.2,0.2014,0.2018,0.2033,0.1856,0.1856,0.1856,0,0.1602,0.1572,0.1561,0.1545,0.1542,0.1539,0.1529,0.1519,0.1538,0.1578,0.1581,0.1687,0.1717,0.1817,0.1862,0.185,0.1868,0.186,0.1994,0.2008,0.2022,0.2024,0.2039,0.1858,0.1858,0.1858,0.1858,0,0.1569,0.1569,0.1556,0.1534,0.1534,0.1521,0.1514,0.1537,0.1558,0.158,0.1681,0.1741,0.1837,0.1852,0.1878,0.201,0.1979,0.1972,0.1957,0.2043,0.2039,0.2054,0.1862,0.1861,0.186,0.186,0,0,0.157,0.154,0.1543,0.1545,0.1531,0.1525,0.1535,0.1558,0.1606,0.1651,0.1742,0.1831,0.192,0.1958,0.202,0.2105,0.221,0.2105,0.2107,0.2093,0.2326,0.2171,0.2172,0.2228,0.2232,0.2236,0.2268,0,0.1551,0.1525,0.1517,0.1515,0.1498,0.1519,0.1539,0.1582,0.1619,0.1706,0.1812,0.191,0.1937,0.2027,0.2118,0.219,0.2261,0.22,0.2261,0.2263,0.2102,0.219,0.2248,0.2279,0.2283,0.2285,0.2287,0,0.151,0.1503,0.1495,0.1519,0.152,0.1539,0.1602,0.1618,0.1731,0.1786,0.1922,0.1994,0.2166,0.2163,0.2327,0.2287,0.2332,0.2364,0.2365,0.2229,0.2139,0.219,0.2314,0.2312,0.231,0.2308,0.2307,0,0.149,0.1488,0.1489,0.1492,0.1516,0.1559,0.1588,0.1675,0.1718,0.1874,0.1952,0.2115,0.224,0.2317,0.2411,0.2382,0.2552,0.2501,0.2389,0.2375,0.2484,0.2469,0.2619,0.2619,0.2619,0.2618,0.2618,0,0.144,0.1447,0.1498,0.1496,0.1539,0.158,0.1642,0.1703,0.1826,0.1908,0.2031,0.2129,0.2298,0.2403,0.2442,0.2465,0.2576,0.2424,0.2396,0.2491,0.2478,0.2491,0.2475,0.262,0.2619,0.2619,0.2619,0,0.1389,0.1413,0.1428,0.1493,0.1522,0.1564,0.1651,0.1692,0.183,0.1946,0.2014,0.2193,0.2313,0.242,0.256,0.2501,0.2531,0.2515,0.2599,0.2571,0.2283,0.227,0.2351,0.2346,0.2342,0.2339,0.2336,0,0.1344,0.135,0.1425,0.1442,0.1474,0.1537,0.1567,0.1689,0.1729,0.1954,0.2002,0.2198,0.2296,0.2342,0.2463,0.2493,0.2485,0.2457,0.2386,0.2303,0.2268,0.2261,0.2253,0.233,0.2329,0.2327,0.2326,0,0.1271,0.1324,0.1339,0.1376,0.142,0.1431,0.1496,0.1528,0.1677,0.1837,0.1953,0.204,0.2175,0.2254,0.2325,0.2341,0.2442,0.2414,0.2421,0.2354,0.2278,0.2246,0.2243,0.2313,0.2315,0.2316,0.2317,0,0.1232,0.1233,0.1269,0.1286,0.1317,0.13,0.1352,0.1407,0.1479,0.1737,0.1778,0.198,0.2162,0.2177,0.223,0.2247,0.2197,0.2106,0.2128,0.2144,0.2066,0.1939,0.1868,0,0,0,0,0,0.1184,0.116,0.1164,0.1159,0.1177,0.1196,0.1275,0.1336,0.1508,0.1546,0.1661,0.1773,0.1888,0.1977,0.1952,0.2114,0.2188,0.2072,0.2089,0.2237,0.2252,0.2183,0,0,0,0,0,0,0.1149,0.1149,0.1126,0.1035,0.101,0.1013,0.1059,0.1189,0.12,0.1411,0.1475,0.1651,0.1772,0.1894,0.1917,0.1945,0.1913,0.2198,0.2193,0.2228,0.2242,0.2255,0.2188,0,0,0,0,0]},{"header":{"parameterUnit":"m.s-1","parameterCategory":2,"la1":30.2991,"la2":30.254,"lo1":-89.0895,"lo2":-89.0444,"dy":0.0017,"dx":0.0017,"nx":28,"ny":28,"refTime":"2024-04-14T03:00:00:Z","depth":"4","parameterNumber":3,"parameterNumberName":"V-component_of_CURRENTS"},"data":[0,0,0,0,0,0,0,0,0,0,0,0,0,0,0,0,0,0,0,0,0,0,0,0,0,0,0,0,0,0,0,0,0,0,0,0,0,0,0,0,0,0,0,0,0,0,0,0,0,0,0,0,0,0,0,0,0,0,0.0084,0.0083,0,0.0104,0.0105,0.0106,0.0096,0.0095,0.0094,0.0094,0.0084,0.0085,0.0085,0,0,0,0,0,0,0,0,0,0,0,0,0,0.0085,0.0085,0.0084,0.0083,0.0083,0.0104,0.0105,0.0106,0.0096,0.0095,0.0094,0.0093,0.0084,0.0085,0.0086,0,0,0,0,0,0,0,0,0,0,0,0,0,0.0097,0.0085,0.0084,0.0078,0.0078,0.0104,0.0105,0.0106,0.0097,0.0095,0.0094,0.0093,0.0084,0.0085,0.0086,0.0118,0,0,0.0088,0.0089,0,0,0,0,0,0,0,0,0.0096,0.0097,0.0079,0.0079,0.0078,0.0093,0.0102,0.0107,0.0097,0.0094,0.0094,0.0092,0.0083,0.0084,0.0097,0.0117,0.0117,0.0088,0.0089,0.0089,0.009,0,0,0,0,0,0,0,0.0095,0.0096,0.0096,0.0079,0.0078,0.0091,0.0092,0.0104,0.0098,0.0094,0.0092,0.0089,0.0083,0.0096,0.0096,0.0117,0.0088,0.0089,0.009,0.009,0.0113,0.0113,0,0,0,0,0,0,0.0083,0.0096,0.0095,0.0096,0.0079,0.0092,0.0093,0.0093,0.0098,0.0097,0.009,0.0088,0.0095,0.0095,0.0096,0.0117,0.0089,0.009,0.0091,0.0113,0.0113,0.0113,0,0,0,0,0,0,0.0084,0.0084,0.0094,0.0093,0.0094,0.0093,0.0094,0.0094,0.0102,0.0095,0.0093,0.0096,0.0094,0.0095,0.0096,0.0117,0.009,0.0091,0.0113,0.0113,0.0113,0.017,0,0,0,0,0,0,0.0084,0.0084,0.0087,0.0092,0.0094,0.0113,0.0094,0.0095,0.01,0.0098,0.0101,0.0099,0.0093,0.0094,0.0096,0.0118,0.0092,0.0113,0.0113,0.0113,0.0168,0.0172,0.0175,0,0,0,0,0,0.0084,0.0093,0.0088,0.0088,0.0097,0.0113,0.0117,0.0113,0.0102,0.0115,0.0103,0.0098,0.0097,0.0096,0.0098,0.012,0.0113,0.0113,0.0113,0.0166,0.0171,0.0175,0,0,0,0,0,0,0.0096,0.0093,0.0087,0.0094,0.0103,0.011,0.0123,0.0117,0.0123,0.0118,0.0106,0.0104,0.011,0.0104,0.0103,0.0123,0.0102,0.0103,0.0142,0.0146,0.015,0.0166,0.0093,0,0,0,0,0,0.01,0.0105,0.0106,0.0113,0.012,0.0123,0.013,0.0127,0.0128,0.0129,0.0131,0.0123,0.0117,0.0121,0.0118,0.0139,0.011,0.015,0.0153,0.0157,0.0169,0.0126,0.0127,0.0114,0.0114,0.0114,0,0,0.0104,0.0104,0.0106,0.0116,0.0125,0.0146,0.0125,0.014,0.0156,0.0128,0.0155,0.0139,0.0122,0.0137,0.014,0.0135,0.0145,0.0157,0.0161,0.0171,0.0127,0.0128,0.0129,0.0114,0.0114,0.0114,0,0,0.0126,0.0121,0.0139,0.015,0.0162,0.0165,0.0168,0.0182,0.0188,0.0208,0.018,0.0175,0.0185,0.0176,0.0169,0.0193,0.0161,0.0189,0.0233,0.0191,0.0192,0.0193,0.0157,0.0154,0.0197,0.0198,0.0198,0,0.0132,0.0154,0.0148,0.0174,0.0188,0.0175,0.0205,0.0213,0.0224,0.0234,0.0221,0.022,0.0206,0.021,0.0216,0.0205,0.0172,0.0221,0.0197,0.0197,0.0197,0.0159,0.0155,0.02,0.02,0.02,0.0199,0,0.0173,0.0192,0.0207,0.0232,0.0248,0.0271,0.0277,0.0294,0.0295,0.03,0.031,0.0288,0.0287,0.0278,0.0258,0.0252,0.0226,0.0202,0.0189,0.0202,0.0161,0.0156,0.0204,0.0203,0.0202,0.0202,0,0,0.0184,0.0226,0.0233,0.0263,0.0282,0.0306,0.033,0.0356,0.0381,0.0379,0.0405,0.0387,0.0372,0.0362,0.0331,0.0299,0.0266,0.0257,0.0253,0.0228,0.0172,0.0157,0.015,0.0231,0.023,0.023,0.0145,0,0.022,0.028,0.029,0.0352,0.0386,0.0388,0.042,0.0438,0.0444,0.0466,0.0433,0.0444,0.0403,0.0405,0.0365,0.0288,0.0254,0.0291,0.0158,0.0155,0.0146,0.0144,0.0228,0.0141,0.0139,0.0139,0.0138,0,0.0262,0.0297,0.0361,0.0425,0.0442,0.0479,0.053,0.0557,0.0566,0.0573,0.0564,0.0531,0.0495,0.0452,0.0336,0.0358,0.0276,0.0212,0.0206,0.0173,0.013,0.0124,0.0128,0.0128,0.0129,0.013,0.013,0,0.0282,0.0352,0.0407,0.0427,0.0489,0.053,0.0569,0.0596,0.0636,0.0641,0.0658,0.0599,0.0579,0.0467,0.0336,0.0332,0.0194,0.0168,0.008,0.0077,0.0091,0.0092,0.0086,0.0086,0.0086,0.0086,0.0087,0,0.0316,0.0364,0.043,0.0462,0.0549,0.0579,0.0665,0.0691,0.0729,0.0778,0.0721,0.0722,0.0579,0.0481,0.0353,0.0201,0.0203,0.0091,0.0055,0.0116,0.012,0.0087,0.0088,0.0083,0.0084,0.0084,0.0085,0,0.0331,0.0367,0.0442,0.0524,0.0563,0.0629,0.0742,0.0801,0.0824,0.0879,0.0884,0.0812,0.0682,0.0526,0.034,0.0234,0.0084,0.0029,0.0113,0.0083,-0.0009,-0.0004,-0.0074,-0.0075,-0.0076,-0.0077,-0.0078,0,0.0346,0.0383,0.0489,0.0545,0.0592,0.0696,0.0774,0.0847,0.0905,0.0928,0.0951,0.085,0.0776,0.0505,0.0332,0.0089,0.0052,-0.0022,-0.0018,0.0003,-0.0025,-0.0018,-0.0012,-0.0079,-0.008,-0.008,-0.008,0,0.0374,0.0409,0.047,0.0579,0.0676,0.0787,0.0899,0.0948,0.1021,0.1038,0.1002,0.0869,0.0719,0.0504,0.0317,0.014,0.0027,-0.0034,-0.0033,-0.003,-0.0005,-0.003,-0.0022,-0.0084,-0.0083,-0.0083,-0.0083,0,0.0396,0.044,0.0517,0.0618,0.0731,0.0844,0.0908,0.098,0.1041,0.1062,0.1041,0.0882,0.0794,0.0529,0.0353,0.0182,0.0135,0.0079,0.0073,0.0075,0.0139,0.0194,0.015,0,0,0,0,0,0.0421,0.0468,0.0553,0.0669,0.0777,0.085,0.0974,0.1027,0.1091,0.1075,0.1064,0.0923,0.0666,0.0549,0.0374,0.0323,0.01,0.0111,0.003,-0.0103,-0.0099,-0.0051,0,0,0,0,0,0,0.0435,0.051,0.0548,0.0687,0.0768,0.0906,0.0987,0.1037,0.1027,0.1047,0.0908,0.0865,0.0608,0.0757,0.0362,0.0312,0.0234,-0.0002,-0.0006,-0.0106,-0.0102,-0.0099,-0.0048,0,0,0,0,0]}]]